Location: Karim�ki
(61.4000°N, 22.9667°E)
Time: 06:28:26
(UTC+00:00)

Daily predictions for brighter satellites

Satellite Brightness Start Highest point End
(mag) Time Altitude Azimuth Time Altitude Azimuth Time Altitude Azimuth
Cosmos 2344 4.2 18:07:45 10° WNW 18:15:54 82° NNE 18:26:47 10° E
COSMOS 2455 3.6 18:12:33 10° NW 18:18:23 52° SW 18:24:11 10° SSE
SL-16 R/B 2.9 18:13:35 10° WSW 18:19:14 62° NW 18:24:52 10° NE
SL-16 R/B 3.5 18:14:04 10° NW 18:19:15 34° NNE 18:24:24 10° ENE
Cosmos 2360 Rocket 3.7 18:16:08 10° WNW 18:21:09 31° N 18:26:10 10° ENE
SPOT 3 Rocket 3.9 18:17:24 10° SSE 18:22:36 73° WSW 18:27:50 10° NNW
Cosmos 1656 3.8 18:17:49 10° NW 18:23:34 75° NE 18:29:15 10° SE
Cosmos 2322 Rocket 3.5 18:21:53 10° NW 18:27:02 33° NNE 18:32:09 10° ENE
Resurs 1-3 3.8 18:23:47 10° SSE 18:28:11 77° WSW 18:32:36 10° NNW
MOS 1 Rocket 4.0 18:23:57 10° NNE 18:29:05 45° E 18:34:18 10° S
Cosmos 1980 Rocket 2.8 18:24:14 10° NW 18:29:40 48° NNE 18:35:07 10° ESE
Cosmos 2084 3.7 18:26:37 10° W 18:31:07 75° N 18:35:34 10° E
Cosmos 2341 Rocket 4.1 18:28:06 10° NNW 18:34:32 88° ENE 18:40:57 10° SSE
CZ-4C R/B 2.8 18:29:49 10° WNW 18:36:11 87° NNE 18:43:52 10° ESE
Cosmos 1818 3.7 18:31:32 10° SSW 18:36:48 52° SE 18:42:06 10° ENE
Cosmos 1892 3.1 18:34:21 10° N 18:38:09 48° ENE 18:41:56 10° SE
Elektron 3 4.4 18:33:27 10° WSW 18:38:52 72° SSE 18:41:58 10° E
Cosmos 2333 Rocket 3.8 18:33:52 10° WNW 18:38:58 33° N 18:44:04 10° ENE
ATLAS CENTAUR R/B 1.2 18:35:30 10° WNW 18:39:37 87° NNE 18:43:16 11° ESE
Cosmos 1455 4.1 18:38:31 10° ESE 18:40:31 14° E 18:42:33 10° NE
IGS 5A 3.8 18:37:27 10° SE 18:41:27 49° ENE 18:45:29 10° N
Cosmos 1603 3.7 18:36:29 10° SW 18:42:07 88° SE 18:47:47 10° NE
Cosmos 2208 Rocket 4.2 18:37:28 10° NNW 18:42:38 61° NE 18:47:37 11° SE
Cosmos 2237 Rocket 3.7 18:37:24 10° W 18:42:40 38° NNW 18:47:58 10° NE
NOSS 3-3 (A) 4.1 18:36:33 10° SW 18:42:42 67° SE 18:49:47 10° ENE
NOSS 3-3 (C) 4.1 18:36:39 10° SW 18:42:49 67° SE 18:49:53 10° ENE
Cosmos 2058 Rocket 3.1 18:39:51 10° S 18:44:20 69° E 18:48:49 10° NNE
NOSS 2-1 (E) 3.9 18:40:30 10° W 18:44:27 69° N 18:49:44 10° E
ATLAS 5 CENTAUR R/B 2.5 18:40:52 10° S 18:44:35 27° SE 18:48:43 10° ENE
Cosmos 1825 3.3 18:42:09 10° N 18:45:33 30° ENE 18:48:32 12° ESE
Cosmos 1763 Rocket 3.5 18:40:26 10° NW 18:45:43 86° NE 18:50:53 10° SE
SPOT 1/Viking Rocket 3.8 18:41:02 10° SE 18:46:09 58° ENE 18:51:18 10° NNW
Cosmos 2218 Rocket 4.0 18:41:10 10° NNW 18:47:23 76° ENE 18:53:40 10° SSE
CARTOSAT-1 4.2 18:45:47 11° SE 18:49:38 41° ENE 18:53:43 10° N
Cosmos 1726 Rocket 3.7 18:45:17 10° SSW 18:49:44 82° WNW 18:54:15 10° NNE
Cosmos 921 Rocket 4.4 18:47:09 10° NW 18:50:59 35° WSW 18:54:48 10° S
Cosmos 540 Rocket 3.7 18:47:15 10° NNW 18:52:26 62° NE 18:57:05 13° SE
Okean 3 Rocket 4.2 18:48:19 10° N 18:52:31 40° ENE 18:56:13 13° SE
Cosmos 2360 4.4 18:48:09 10° NW 18:53:50 65° NE 18:59:01 13° ESE
USA 234 4.5 18:49:56 10° E 18:53:54 17° SE 18:57:50 10° SSE
Aureole 1 Rocket 3.8 18:47:18 10° SSW 18:54:02 66° ESE 18:59:09 10° NE
Cosmos 1766 Rocket 4.4 18:50:22 10° N 18:54:35 37° ENE 18:58:09 13° SE
SeaSat 1 2.6 18:52:21 10° NE 18:57:20 80° NW 19:02:17 10° SW
Cosmos 1814 Rocket 4.2 18:52:19 10° NNW 18:57:41 66° NE 19:02:26 13° SE
Iridium 4 Rocket 3.1 18:53:46 10° N 18:58:01 57° E 19:02:06 10° SSE
H-2A R/B 4.0 18:54:12 10° SSW 18:58:35 28° W 19:02:54 10° NNW
Cosmos 2278 3.9 18:53:08 10° NW 18:58:47 65° NE 19:03:49 13° ESE
In-Cosmos 22 Rocket 4.4 18:53:06 10° NNW 18:58:58 87° WSW 19:04:50 10° SSE
Resurs 01 Rocket 2.2 18:56:15 10° S 19:00:36 57° WSW 19:05:00 10° NNW
SL-8 Rocket 4.1 18:55:28 10° NNW 19:01:49 83° WSW 19:08:09 10° S
Cosmos 2228 3.8 19:00:22 10° SSW 19:04:39 57° WNW 19:08:59 10° N
Nadezhda 1 Rocket 4.3 18:58:36 10° SSW 19:05:00 77° WNW 19:11:21 10° NNE
Cosmos 1300 2.7 19:03:00 10° S 19:06:48 65° E 19:10:37 10° NNE
Cosmos 2251 Rocket 4.4 19:02:10 10° SW 19:07:28 56° NW 19:12:48 10° NNE
Landsat 7 3.8 19:03:11 10° SSE 19:07:55 81° ENE 19:12:42 10° NNW
SAR-Lupe-2 4.0 19:04:49 10° NNE 19:08:15 41° E 19:11:40 10° S
Cosmos 2181 Rocket 4.0 19:06:02 10° S 19:12:09 64° E 19:18:14 10° NNE
RESURS DK-1 2.5 19:08:24 10° NW 19:12:34 69° SW 19:15:51 16° SSE
Cosmos 2058 3.0 19:09:30 10° NNW 19:13:38 77° WSW 19:17:45 10° S
Cosmos 1812 Rocket 3.8 19:09:31 10° SSE 19:13:41 47° E 19:17:52 10° NNE
USA 32 4.2 19:08:34 10° N 19:13:47 59° ENE 19:18:16 14° SSE
Cosmos 2366 rocket 4.1 19:09:09 10° NNW 19:15:20 83° W 19:21:30 10° S
Cosmos 1140 Rocket 3.4 19:10:44 10° SSW 19:15:52 69° ESE 19:21:01 10° NE
SL-4 R/B 3.3 19:14:16 10° SSW 19:16:25 16° S 19:16:52 15° SSE
Cosmos 1833 Rocket 4.2 19:14:51 14° ESE 19:16:27 16° E 19:19:47 10° ENE
MetOp-B 4.5 19:12:49 10° S 19:18:10 67° WSW 19:23:33 10° NNW
Cosmos 2151 3.0 19:14:42 10° N 19:18:55 64° ENE 19:22:07 17° SSE
Cosmos 2219 Rocket 3.8 19:14:02 10° WNW 19:19:04 31° N 19:24:04 10° ENE
Meteor 2-10 Rocket 4.4 19:17:32 15° SE 19:21:14 33° E 19:26:06 10° NNE
Cosmos 1340 Rocket 3.2 19:17:16 10° SSW 19:21:18 67° WNW 19:25:19 10° NNE
ASTEX 1 4.4 19:18:04 16° ESE 19:21:19 32° ENE 19:25:41 10° N
Cosmos 841 Rocket 3.5 19:18:34 10° NW 19:23:54 86° WSW 19:28:06 17° SSE
Spot 2 Rocket 3.8 19:19:54 10° S 19:24:59 66° WSW 19:30:06 10° NNW
Cosmos 614 Rocket 4.1 19:20:51 10° SW 19:26:05 80° NW 19:31:20 10° NNE
Cosmos 1190 Rocket 4.0 19:20:47 10° SSW 19:26:05 84° ESE 19:31:25 10° NE
DMSP B5D2-2 4.2 19:23:45 10° NNE 19:29:00 82° WNW 19:34:15 10° SSW
Cosmos 1076 Rocket 4.0 19:25:39 10° NNW 19:29:51 58° W 19:34:04 10° S
COSMOS 2406 4.1 19:26:20 14° SSE 19:30:13 28° ESE 19:35:00 10° NE
Cosmos 1408 2.5 19:31:12 10° NNW 19:34:53 88° WSW 19:37:26 19° SSE
Cosmos 1408 Rocket 4.0 19:30:40 10° N 19:35:03 50° ENE 19:37:47 21° SE
Cosmos 1943 3.7 19:31:30 10° WSW 19:37:09 64° NW 19:42:52 10° NE
CZ-2C R/B 2.7 19:33:05 10° NNE 19:38:18 80° WNW 19:43:30 10° SSW
Cosmos 2369 3.8 19:35:37 10° NW 19:41:16 71° SW 19:45:22 19° SSE
NOSS 2-1 (C) 3.8 19:38:16 10° WNW 19:42:24 79° NNE 19:47:07 14° ESE
COSMOS 2428 4.3 19:38:42 10° WNW 19:43:50 33° N 19:48:59 10° ENE
Cosmos 1570 Rocket 4.4 19:38:35 10° NW 19:43:53 61° WSW 19:47:59 17° SSE
Cosmos 1697 Rocket 2.9 19:38:38 10° NW 19:44:17 68° SW 19:48:22 19° SSE
SPOT 5 2.6 19:43:20 19° SSE 19:46:24 85° WSW 19:50:47 10° NNW
NOSS 2-1 (D) 3.8 19:42:31 10° WNW 19:46:40 81° NNE 19:51:15 15° ESE
Terra 1.8 19:46:44 21° SSE 19:49:58 82° ENE 19:54:47 10° NNW
Cosmos 1340 4.4 19:47:24 10° N 19:50:25 22° NE 19:52:15 16° E
ERS-1 Rocket 3.1 19:47:10 16° S 19:51:13 72° WSW 19:56:17 10° NNW
Cosmos 2239 Rocket 4.5 19:45:24 10° NNW 19:51:40 78° ENE 19:56:18 19° SSE
Cosmos 407 Rocket 3.9 19:47:41 10° SW 19:52:48 65° NW 19:57:56 10° NNE
Cosmos 676 Rocket 4.0 19:49:47 10° SSW 19:55:04 88° SE 20:00:22 10° NE
Iridium 2 4.3 19:51:29 10° SSW 19:55:15 57° WNW 19:59:03 10° N
Meteor 2-1 Rocket 4.3 19:49:48 10° S 19:55:43 77° ESE 20:01:41 10° NNE
Cosmos 1821 Rocket 4.1 19:49:56 10° NNW 19:56:21 89° ENE 20:01:17 18° SSE
Cosmos 2221 4.1 19:57:26 19° ESE 19:58:27 20° E 20:01:39 10° NE
Cosmos-2242 3.1 19:56:38 22° SSE 19:59:14 56° E 20:03:32 10° NNE
Cosmos 1934 Rocket 4.1 19:53:05 10° NNW 19:59:23 69° ENE 20:03:31 22° SSE
SL-24 R/B - RUBIN 2 4.4 19:57:15 10° SW 20:03:16 76° SE 20:09:54 10° ENE
SL-16 R/B 3.9 19:59:09 10° W 20:04:19 34° NNW 20:09:30 10° NE
SL-16 R/B 2.6 19:58:43 10° NW 20:04:22 60° NE 20:08:20 20° ESE
Cosmos 2360 Rocket 3.1 20:01:00 10° NW 20:06:25 44° NNE 20:11:15 13° E
Cosmos 2084 3.6 20:06:15 10° WNW 20:10:41 65° SSW 20:12:46 30° SE
Cosmos 2322 Rocket 2.6 20:06:29 10° NW 20:12:07 59° NE 20:16:00 20° ESE
Cosmos 1892 4.5 20:10:19 10° NNW 20:13:42 29° W 20:17:05 10° SSW
Cosmos 1980 Rocket 2.3 20:08:25 10° NW 20:14:01 70° SW 20:17:17 26° SSE
Cosmos 1356 Rocket 3.4 20:12:14 22° S 20:14:57 73° ESE 20:19:11 10° NNE
STPSAT 2 (USA 217) 4.5 20:10:51 10° SSW 20:15:20 77° SE 20:19:52 10° NE
Cosmos 1455 2.1 20:13:24 26° S 20:15:29 78° ESE 20:19:22 10° NNE
Cosmos 1605 Rocket 4.1 20:09:32 10° NNW 20:15:39 63° ENE 20:19:19 25° SE
Meteor 2-3 Rocket 3.7 20:11:33 10° NNW 20:17:22 89° WSW 20:20:53 25° SSE
Cosmos 1954 Rocket 4.2 20:12:14 10° SW 20:17:28 74° NW 20:22:42 10° NNE
ATLAS CENTAUR R/B 2.4 20:14:43 10° WNW 20:18:12 29° SW 20:19:27 24° SSW
Mayak -0.4 20:15:09 10° NNE 20:18:56 32° E 20:19:48 29° ESE
Cosmos 1818 3.8 20:14:51 10° WSW 20:20:20 74° NNW 20:25:49 10° ENE
MTI 3.9 20:17:38 10° NNE 20:20:39 46° ESE 20:20:52 45° ESE
Cosmos 1825 3.0 20:17:35 10° NNW 20:21:15 46° W 20:23:21 22° SSW
Sich 1 4.2 20:17:44 10° N 20:21:49 34° ENE 20:23:43 23° ESE
Cosmos 1741 Rocket 4.0 20:18:30 10° SSW 20:23:48 69° ESE 20:29:07 10° NE
Cosmos 2333 Rocket 3.5 20:19:18 10° NW 20:24:36 38° NNE 20:29:51 10° E
CZ-4C R/B 3.2 20:18:12 10° WNW 20:24:43 54° SW 20:29:17 24° SSE
CARTOSAT-1 4.5 20:22:53 18° SSW 20:25:45 43° W 20:29:55 10° NNW
Thor Agena Rocket 4.3 20:21:17 10° NNE 20:25:52 33° E 20:27:23 27° SE
Cosmos 2237 Rocket 3.9 20:23:02 10° WNW 20:28:06 32° N 20:33:11 10° ENE
ATLAS 5 CENTAUR R/B 1.6 20:24:05 10° WSW 20:28:35 77° SSE 20:33:52 10° ENE
Spot 4 4.0 20:27:59 30° SE 20:30:14 62° ENE 20:35:01 10° NNW
Cosmos 2344 4.3 20:21:57 10° WNW 20:30:35 66° SW 20:38:33 23° SE
Cosmos 1766 Rocket 4.4 20:28:16 10° NNW 20:32:36 46° W 20:35:19 21° SSW
NOSS 3-3 (A) 4.4 20:27:12 10° W 20:33:43 78° N 20:41:14 10° ENE
NOSS 3-3 (C) 4.3 20:27:19 10° W 20:33:49 79° N 20:41:20 10° ENE
Cosmos 540 Rocket 4.5 20:29:08 10° NW 20:33:53 38° WSW 20:36:54 20° SSW
SeaSat 1 4.2 20:30:01 10° NE 20:34:29 35° NNW 20:38:57 10° W
NOSS 2-1 (E) 3.9 20:30:48 10° WNW 20:35:12 81° SSW 20:38:37 25° ESE
Cosmos 836 Rocket 4.5 20:29:58 10° NW 20:35:14 81° WSW 20:37:47 32° SSE
Resurs 01 Rocket 4.3 20:36:07 10° WSW 20:38:06 13° W 20:40:05 10° NW
USA 234 3.6 20:32:23 10° E 20:38:24 37° SSE 20:44:24 10° SSW
Intercosmos 25 3.7 20:39:30 34° E 20:39:30 34° E 20:42:32 10° NNE
ALOS 2 3.3 20:38:40 28° ESE 20:40:28 43° ENE 20:44:38 10° N
Cosmos 2278 4.4 20:37:29 10° NW 20:42:50 44° WSW 20:45:43 25° S
Cosmos 1500 Rocket 3.5 20:39:04 10° NNW 20:43:26 89° W 20:45:04 38° SSE
Cosmos 1805 Rocket 3.9 20:40:22 10° N 20:44:48 57° ENE 20:46:23 36° SE
EO 1 Del DPAF 3.8 20:42:19 10° NNE 20:45:52 37° E 20:46:08 37° ESE
Cosmos 1633 2.4 20:46:32 10° NNW 20:50:07 79° ENE 20:50:47 56° SSE
Cosmos 2082 Rocket 2.7 20:49:07 32° SSE 20:50:39 38° ESE 20:55:52 10° NE
Cosmos 1869 4.0 20:53:06 35° ESE 20:53:32 37° E 20:57:15 10° NNE
Cosmos 1833 Rocket 2.8 20:56:29 28° S 20:59:18 56° ESE 21:04:50 10° NE
ASTEX 1 3.7 20:57:33 28° SSW 21:00:05 64° W 21:05:02 10° N
Cosmos 1633 Rocket 3.8 20:57:11 10° N 21:01:27 42° ENE 21:02:55 31° ESE
Meteor 2-10 Rocket 3.9 20:58:38 15° SSW 21:03:00 66° WNW 21:08:33 10° NNE
Cosmos 2219 Rocket 3.1 20:58:52 10° NW 21:04:17 44° NNE 21:09:18 12° E
Cosmos 1538 Rocket 4.4 20:59:24 10° NNW 21:04:39 59° NE 21:07:26 27° ESE
Cosmos 1850 Rocket 4.2 21:03:20 10° SW 21:08:31 69° NW 21:13:44 10° NNE
Cosmos 773 Rocket 4.0 21:04:26 10° NNW 21:09:40 75° NE 21:11:55 35° SE
Cosmos 2061 Rocket 4.5 21:07:08 10° N 21:13:14 52° ENE 21:16:27 28° SE
JB-3 4.2 21:09:53 10° NNE 21:13:44 69° ESE 21:14:21 57° SSE
Cosmos 1346 Rocket 2.9 21:09:43 10° NNW 21:13:45 70° ENE 21:14:37 51° SE
COSMOS 2406 3.2 21:08:16 10° SW 21:13:57 88° SE 21:19:45 10° NE
Helios 1A 3.3 21:13:23 41° ESE 21:14:35 58° ENE 21:18:45 10° NNW
Cosmos 1743 Rocket 4.1 21:10:28 10° NNW 21:14:50 51° W 21:16:28 33° SSW
Meteor 1-27 4.2 21:13:11 32° S 21:16:00 77° ESE 21:21:53 10° NNE
Cosmos 1862 3.3 21:13:11 10° NNW 21:17:17 81° ENE 21:18:10 54° SSE
Cosmos 2237 4.3 21:13:03 10° NW 21:18:49 79° NE 21:21:42 31° SE
Cosmos 1486 Rocket 4.4 21:18:23 39° SSE 21:19:38 46° ESE 21:24:41 10° NE
Elektron 3 4.4 21:17:30 10° W 21:20:16 45° WSW 21:20:16 45° WSW
Nadezhda 3 Rocket 4.4 21:15:55 15° SSW 21:21:07 62° WNW 21:27:21 10° NNE
Cosmos 1459 Rocket 4.1 21:19:04 10° NNW 21:25:29 74° ENE 21:28:25 34° SSE
Cosmos 1340 2.6 21:22:40 10° NNW 21:26:29 74° WSW 21:27:00 61° SSW
Cosmos 2322 4.1 21:21:11 10° NW 21:26:54 63° NE 21:30:29 23° ESE
Cosmos 968 Rocket 4.0 21:26:06 37° SE 21:27:05 41° ESE 21:32:00 10° NE
Terra 3.6 21:25:36 15° SW 21:28:18 24° W 21:32:11 10° NW
COSMOS 2428 3.4 21:23:39 10° NW 21:29:16 52° NNE 21:33:50 15° ESE
NOSS 2-1 (C) 4.3 21:28:30 10° WNW 21:32:57 51° SW 21:34:26 40° S
Cosmos 2221 2.5 21:34:15 46° SSW 21:35:31 84° WNW 21:39:55 10° NNE
NOSS 2-1 (D) 4.3 21:32:45 10° WNW 21:37:11 49° SW 21:38:34 40° S
SL-16 R/B 4.1 21:33:27 10° E 21:38:42 30° NE 21:43:57 10° NNW
SL-27 R/B 4.2 21:39:51 20° ENE 21:39:51 20° ENE 21:41:33 10° NE
Helios 1B rocket 4.3 21:37:48 10° NE 21:40:35 17° E 21:40:56 17° E
Cosmos 1727 Rocket 4.0 21:39:54 36° S 21:42:36 72° E 21:48:57 10° NNE
Cosmos 1400 Rocket 2.7 21:42:34 64° SSE 21:43:01 73° ESE 21:46:58 10° NNE
Cosmos 2016 Rocket 4.1 21:37:40 10° NNW 21:44:04 72° ENE 21:46:56 35° SSE
Cosmos 1725 Rocket 4.2 21:38:07 10° NNW 21:44:26 63° ENE 21:47:24 32° SE
Cosmos 1238 Rocket 2.3 21:43:37 10° NNW 21:46:23 71° NW 21:46:23 71° NW
Cosmos 1802 Rocket 3.9 21:41:46 10° NNW 21:48:03 83° ENE 21:50:41 37° SSE
SL-16 R/B 2.6 21:43:00 10° NW 21:48:30 50° WSW 21:50:12 38° SSW
SL-16 R/B 3.8 21:44:41 10° NW 21:49:50 34° NNE 21:55:00 10° ENE
Cosmos 1666 Rocket 3.5 21:45:55 10° NNW 21:50:17 79° W 21:51:10 56° S
Cosmos 1933 Rocket 4.1 21:46:03 10° N 21:50:24 50° ENE 21:51:40 38° ESE
Cosmos 2360 Rocket 2.1 21:45:14 10° NW 21:50:53 79° SW 21:53:00 40° SSE
Cosmos 2100 Rocket 4.0 21:45:35 10° NNW 21:51:49 80° W 21:54:26 37° S
Cosmos 1842 Rocket 4.1 21:52:27 33° SW 21:54:07 53° WNW 21:58:24 10° N
Mayak -0.5 21:50:40 10° N 21:54:41 49° WNW 21:56:22 30° WSW
Cosmos 2322 Rocket 2.5 21:50:44 10° NW 21:56:12 51° WSW 21:57:48 39° SSW
Cosmos 1980 Rocket 3.8 21:53:08 10° WNW 21:57:11 21° WSW 21:59:03 18° SW
Cosmos 2173 Rocket 3.9 21:53:10 10° NNW 21:59:17 77° W 22:01:44 38° S
Sich 1 3.5 21:55:23 10° NNW 21:59:44 52° W 22:00:41 43° SW
Cosmos 1818 4.1 21:59:00 10° WNW 22:04:25 60° N 22:09:50 10° E
Thor Agena Rocket 3.8 22:00:31 10° NNE 22:05:33 65° WNW 22:07:59 31° SW
NOSS 0 Rocket 4.4 22:00:16 10° NW 22:06:24 61° NNE 22:12:14 11° ESE
YAOGAN 11 4.2 22:07:13 52° S 22:08:15 74° WSW 22:12:52 10° NNW
SME Rocket 3.7 22:03:57 10° NNE 22:08:16 39° E 22:08:39 38° ESE
Cosmos 1328 Rocket 4.1 22:09:03 40° ESE 22:09:37 43° E 22:13:43 10° NNE
Cosmos 2333 Rocket 2.3 22:03:56 10° NW 22:09:38 77° NE 22:12:44 28° SE
Cosmos 44 3.3 22:12:17 48° SE 22:12:17 48° SE 22:16:16 10° ENE
CZ-4C R/B 4.3 22:07:09 10° WNW 22:12:20 22° WSW 22:14:29 20° SW
Cosmos 2237 Rocket 3.1 22:07:49 10° NW 22:13:21 49° NNE 22:18:52 10° ESE
ATLAS 5 CENTAUR R/B 2.2 22:08:38 10° W 22:13:24 71° N 22:19:03 10° E
Cosmos 1354 Rocket 4.1 22:12:19 46° SSE 22:13:37 60° ESE 22:18:48 10° NE
Cosmos 1606 3.5 22:14:53 38° E 22:15:04 39° E 22:18:43 10° NNE
ALOS 2 3.3 22:16:03 37° SW 22:16:52 41° W 22:21:04 10° NNW
EO 1 Del DPAF 4.4 22:16:25 10° N 22:19:56 38° WNW 22:21:10 29° WSW
USA 234 3.2 22:15:49 10° E 22:22:17 58° SSE 22:28:44 10° WSW
NOSS 3-3 (A) 4.4 22:18:17 10° WNW 22:25:07 83° NNE 22:32:58 10° ESE
NOSS 3-3 (C) 4.4 22:18:23 10° WNW 22:25:13 83° NNE 22:33:04 10° ESE
Cosmos 1933 3.8 22:24:54 43° ESE 22:25:15 44° E 22:29:07 10° NNE
Cosmos 923 Rocket 3.9 22:20:47 10° NW 22:26:04 89° WSW 22:27:54 42° SSE
COSMOS 2487 4.5 22:27:22 18° E 22:27:22 18° E 22:29:15 10° ENE
Cosmos 1503 Rocket 3.9 22:27:04 46° SSW 22:28:39 77° ESE 22:33:52 10° NE
Cosmos 1869 4.4 22:28:37 31° WSW 22:29:48 39° WNW 22:33:38 10° N
IRAS Rocket 4.2 22:28:28 39° SSE 22:30:40 89° WSW 22:36:22 10° NNW
deb Kosmos-1763 4.4 22:31:22 53° W 22:31:57 63° NW 22:35:38 10° NNE
Cosmos 2082 Rocket 2.3 22:30:55 23° SW 22:34:30 73° NW 22:40:14 10° NE
Cosmos 1470 Rocket 3.6 22:30:33 10° NNW 22:34:56 64° W 22:35:38 54° SW
Cosmos 1000 Rocket 4.5 22:32:21 38° S 22:34:59 88° ESE 22:41:20 10° NNE
Cosmos 2228 Rocket 4.2 22:34:42 30° ESE 22:35:47 34° E 22:39:55 10° NNE
CZ-4C R/B 4.4 22:35:04 28° E 22:36:01 33° ENE 22:39:11 10° N
Meteor 1-25 Rocket 4.2 22:31:02 10° NNW 22:36:47 77° WSW 22:38:52 42° S
Cosmos 1315 Rocket 2.8 22:36:34 64° SSW 22:37:10 84° WNW 22:41:21 10° NNE
Cosmos 1633 Rocket 3.8 22:35:07 10° NNW 22:39:16 40° W 22:40:00 37° WSW
Cosmos 1680 Rocket 3.4 22:37:28 10° NW 22:42:45 87° WSW 22:44:40 41° SSE
Cosmos 1833 Rocket 3.3 22:38:06 11° WSW 22:43:23 55° NW 22:48:57 10° NE
Cosmos 1151 Rocket 2.9 22:43:01 59° SSE 22:43:45 77° ESE 22:48:05 10° NNE
Cosmos 2219 Rocket 2.1 22:43:02 10° NW 22:48:41 78° SW 22:50:59 37° SSE
Helios 1A 4.2 22:50:00 28° WSW 22:50:27 28° W 22:54:08 10° NNW
Cosmos 1782 3.5 22:56:22 38° ESE 22:56:54 40° E 23:00:39 10° NNE
Cosmos 1607 3.8 22:55:18 29° SW 22:58:42 80° SE 23:05:02 10° ENE
COSMOS 2406 4.4 22:53:26 10° W 22:58:51 42° NNW 23:04:19 10° NE
Cosmos 2061 Rocket 4.5 22:53:02 10° NNW 22:59:00 49° W 23:01:24 33° SW
SL-19 R/B 4.4 22:55:50 27° SE 22:59:01 73° ENE 23:04:37 10° NNW
Cosmos 724 4.4 23:05:24 41° S 23:07:06 55° SE 23:12:46 10° ENE
Meteor 1-26 Rocket 4.4 23:06:17 38° S 23:08:31 66° E 23:14:11 10° NNE
Cosmos 968 Rocket 3.9 23:06:04 28° WSW 23:08:48 59° NW 23:14:03 10° NNE
Meteor 1-14 Rocket 4.4 23:04:01 10° NNW 23:10:00 70° WSW 23:12:17 39° S
Resurs 1-4 Rocket 3.8 23:05:57 10° NE 23:10:13 24° E 23:13:05 16° SE
Cosmos 2322 4.1 23:05:35 10° NW 23:11:03 47° WSW 23:12:24 39° SSW
MOZ.5/SAFIR/RUBIN 5/SL-8 4.1 23:08:56 31° SE 23:11:07 66° ENE 23:15:52 10° NNW
Cosmos 1869 Rocket 3.5 23:07:44 10° NNW 23:12:14 83° WSW 23:13:18 52° S
SL-27 R/B 2.8 23:13:24 50° WNW 23:13:40 52° NW 23:16:59 10° NNE
COSMOS 2428 2.7 23:08:08 10° NW 23:13:46 62° WSW 23:15:49 38° S
Cosmos 158 Rocket 3.9 23:08:49 10° NW 23:14:06 70° WSW 23:15:48 42° S
Cosmos 44 Rocket 3.7 23:13:43 39° SE 23:14:10 40° SE 23:18:35 10° ENE
Helios 1B rocket 2.3 23:12:20 10° NNE 23:16:30 86° ESE 23:17:15 59° SSW
Cosmos 1980 3.7 23:10:59 10° NW 23:16:43 84° NE 23:21:11 17° SE
Landsat 4 4.5 23:14:52 10° N 23:18:32 44° WNW 23:19:22 37° W
Cosmos 1441 Rocket 3.3 23:15:08 10° NNW 23:18:50 54° W 23:18:54 54° WSW
Meteor 2-11 Rocket 4.4 23:13:18 10° NNW 23:19:29 87° ENE 23:22:38 31° SSE
Cosmos 2233 Rocket 4.2 23:14:58 10° NNW 23:21:09 59° W 23:23:39 36° SSW
SL-16 R/B 2.6 23:17:35 23° SSE 23:21:39 78° ENE 23:27:54 10° NNW
Cosmos 1072 Rocket 4.5 23:17:41 10° NNW 23:23:56 84° ENE 23:27:20 29° SSE
PSLV R/B 3.6 23:20:16 10° NNE 23:24:45 80° ESE 23:26:00 48° S
Cosmos 2112 Rocket 4.1 23:22:12 10° NW 23:27:18 55° WSW 23:28:43 42° SSW
Cosmos 1933 Rocket 4.5 23:24:09 10° NNW 23:28:09 33° W 23:28:48 32° WSW
Cosmos 1812 4.2 23:27:08 25° ESE 23:28:16 29° E 23:31:38 10° NNE
Mayak 1.4 23:27:17 10° N 23:29:28 14° NW 23:31:38 10° WNW
Cosmos 1515 Rocket 3.6 23:28:30 49° SW 23:29:35 70° WNW 23:33:59 10° NNE
Cosmos 1777 Rocket 3.9 23:29:08 41° SSW 23:31:00 81° ESE 23:36:17 10° NE
SL-16 R/B 4.1 23:28:33 10° WNW 23:31:23 14° W 23:32:03 14° WSW
CZ-4 R/B 3.9 23:27:30 10° NNE 23:32:27 80° WNW 23:34:13 41° SSW
UNK 3.8 23:30:56 32° SSE 23:33:05 77° ENE 23:37:47 10° NNW
Cosmos 2360 Rocket 3.4 23:29:47 10° NW 23:34:12 24° WSW 23:34:46 24° WSW
SL-16 R/B 2.7 23:29:19 10° NW 23:34:58 60° NE 23:40:35 10° ESE
Cosmos 1707 Rocket 4.4 23:34:42 30° SE 23:36:21 42° E 23:40:34 10° NNE
Cosmos 2322 Rocket 4.0 23:36:10 10° WNW 23:39:03 14° W 23:39:36 14° WSW
MOS 1-B Rocket 4.4 23:33:51 10° NNE 23:39:43 61° WNW 23:43:25 27° SW
CZ-2D R/B 3.3 23:34:51 10° NNE 23:39:56 36° E 23:43:04 20° SSE
Meteor 1-29 2.8 23:38:33 10° NNE 23:41:59 75° WNW 23:42:18 67° WSW
Meteor 2-20 Rocket 4.4 23:43:29 34° SSW 23:46:24 88° W 23:52:38 10° NNE
Cosmos 405 Rocket 2.7 23:42:52 10° NNW 23:46:37 75° ENE 23:47:43 44° SE
Genesis I 3.3 23:46:36 53° SSE 23:46:58 55° SE 23:50:48 10° ENE
Cosmos 1328 Rocket 4.5 23:46:05 30° WSW 23:47:29 38° WNW 23:51:33 10° N
SeaSat 1 4.4 23:43:25 10° E 23:47:46 32° NNE 23:52:07 10° NW
Cosmos 2123 Rocket 4.3 23:45:08 30° SW 23:48:10 57° WNW 23:54:18 10° NNE
Cosmos 1818 3.6 23:42:54 10° WNW 23:48:25 86° NNE 23:53:54 10° ESE
Cosmos 1500 3.1 23:46:03 10° NNW 23:49:47 65° W 23:50:15 58° SW
Cosmos 1464 Rocket 3.9 23:44:39 10° NNW 23:50:49 77° W 23:54:02 30° S
Cosmos 1606 3.7 23:49:53 31° W 23:50:51 36° WNW 23:54:29 10° N
NOSS 0 Rocket 4.0 23:46:56 10° NW 23:52:58 56° WSW 23:56:11 27° S
Cosmos 44 3.2 23:50:40 24° W 23:53:12 68° NNW 23:57:36 10° ENE
Cosmos 2333 Rocket 2.8 23:48:29 10° NW 23:53:36 36° WSW 23:54:44 33° SW
SJ 16-02 2.1 23:52:41 32° SSE 23:54:04 42° ESE 23:58:13 10° NE
